Theta_e
345 348 346 355 360 356 362 367 358 364 364 357 357 358 360 359 362 365 351 350 349 353 352 348 349 350 352 349 350 349 348 348 347 344 339 336 340 339 340 347 352 352 353 351 350 352 353 352 352
349 354 349 352 364 359 360 361 364 364 359 356 355 355 357 361 357 352 350 348 348 353 350 349 349 350 351 348 351 351 345 341 338 337 340 349 353 352 353 352 350 352 353 351 352 352 351 353 352
353 356 357 358 358 369 368 362 360 358 358 357 357 354 355 360 353 351 352 348 348 353 348 349 350 350 351 349 352 352 351 348 344 341 344 343 346 350 352 353 352 352 349 353 352 344 341 345 344
355 352 356 356 363 365 366 364 360 361 358 352 356 357 353 353 352 351 351 347 347 350 346 349 351 351 351 351 350 353 353 350 348 349 351 351 351 351 351 351 349 351 352 349 347 343 340 339 340
350 357 363 360 359 359 360 360 359 364 359 353 356 357 357 351 351 351 350 348 349 349 347 348 344 350 351 351 351 348 353 351 352 352 352 351 352 352 351 350 350 351 349 350 344 344 341 340 339
355 353 365 366 363 360 358 357 360 362 356 356 356 356 354 351 351 351 348 349 344 347 352 346 346 348 351 351 352 351 353 350 352 352 352 351 352 351 348 349 350 345 346 346 344 343 340 339 338
354 359 364 363 363 364 359 353 359 361 355 359 354 357 353 351 350 348 349 347 343 337 342 346 348 350 351 350 352 352 353 352 352 353 352 347 348 347 350 350 350 349 348 348 348 344 341 342 339
355 359 363 360 358 359 357 352 358 356 354 349 353 358 355 350 351 351 353 353 344 335 335 341 347 352 348 350 353 353 353 353 352 346 344 341 343 345 348 342 344 347 342 342 343 347 346 344 347
352 355 360 355 354 359 352 353 350 349 351 353 353 353 350 354 355 355 354 354 353 353 343 337 345 350 347 351 353 353 353 351 350 347 342 341 339 337 338 340 346 344 338 345 347 348 350 350 350
352 352 354 353 351 355 355 354 354 353 349 355 355 350 355 356 354 354 354 354 354 354 353 345 345 348 347 350 352 351 351 349 348 348 346 337 336 334 336 340 343 339 342 346 346 349 350 350 341
349 346 350 349 350 353 354 354 351 345 346 351 355 353 354 354 353 353 353 353 353 353 351 348 344 344 345 349 352 349 351 349 347 344 342 339 337 334 338 341 337 344 342 345 347 346 346 346 344
349 347 344 349 348 349 353 353 352 349 346 347 351 350 351 352 352 352 352 351 352 352 351 349 345 345 348 348 352 349 351 350 347 344 343 340 338 334 337 339 336 342 344 346 346 346 347 346 345
345 346 346 341 340 342 352 354 354 352 346 345 354 351 350 351 352 352 352 351 351 351 351 349 347 348 349 350 349 349 350 350 346 343 345 343 344 338 337 337 336 342 346 346 346 348 348 347 347
340 341 340 340 341 345 354 356 356 349 346 348 355 354 353 351 352 352 352 352 351 351 351 351 350 349 348 350 352 347 346 344 348 345 348 347 346 342 339 339 341 345 346 345 347 348 348 347 346
338 339 338 336 339 350 353 356 356 352 349 354 358 356 354 352 351 352 352 351 352 352 352 351 351 351 350 352 352 348 349 347 348 346 347 347 347 345 344 343 343 343 343 346 349 348 349 348 347
337 338 338 337 339 344 340 344 352 355 360 362 358 349 355 349 350 349 351 351 351 351 348 351 352 352 351 350 349 350 349 349 346 348 349 348 348 348 347 346 344 341 343 346 348 348 348 347 347
335 339 339 340 341 347 345 350 347 355 356 348 356 352 355 351 348 344 349 350 350 350 349 350 349 350 351 351 351 349 349 348 349 350 349 348 347 349 348 344 342 340 343 345 347 348 347 345 348
338 339 340 341 342 346 344 350 350 358 358 345 360 357 354 350 348 346 344 347 349 349 349 350 349 350 350 350 350 350 350 348 350 351 349 348 347 348 348 342 340 338 338 346 349 346 344 346 347
334 338 340 343 342 346 350 353 354 355 361 362 359 356 353 351 348 347 343 348 349 350 350 350 350 349 350 351 350 351 350 349 350 350 349 348 348 349 348 341 343 340 340 346 346 348 342 345 343
335 337 342 341 342 341 355 357 355 356 361 360 359 359 355 351 349 350 349 341 346 347 344 349 349 348 351 351 350 350 350 351 351 349 350 348 347 346 340 345 342 340 341 341 345 348 346 341 336
334 338 339 340 341 344 353 355 354 354 359 359 358 357 354 351 350 347 347 346 346 348 349 347 348 352 351 352 351 351 351 352 352 351 350 348 347 346 345 347 347 342 347 348 346 347 347 346 349
337 336 336 341 340 343 348 359 352 352 357 357 356 355 353 351 348 345 345 345 345 346 347 349 352 352 352 351 351 350 351 352 351 351 350 348 345 345 347 348 347 344 347 348 349 347 349 348 348
335 332 332 337 334 333 341 350 349 345 352 355 353 352 351 350 349 348 345 344 343 343 342 349 352 352 352 351 352 351 351 351 350 349 349 348 346 346 344 346 347 346 344 348 349 347 349 350 349
331 330 327 329 329 334 345 344 350 349 349 348 351 351 350 348 348 347 347 346 338 345 349 351 352 353 352 353 353 353 351 348 352 350 347 345 345 346 346 346 347 345 346 347 346 347 348 349 350
328 324 327 331 331 343 347 350 345 345 344 345 344 346 350 348 346 346 346 349 349 348 351 354 354 353 354 355 354 353 348 349 352 350 347 347 348 349 349 350 349 349 347 347 348 349 349 350 351
328 323 326 334 343 343 345 352 351 341 342 342 344 341 348 347 345 345 346 349 350 350 351 354 353 355 356 356 353 352 350 350 352 350 352 353 353 351 350 349 349 351 350 348 349 350 349 348 351
328 327 325 328 334 346 349 347 344 345 343 346 344 349 348 346 346 345 347 349 348 349 352 355 354 355 354 356 355 355 354 352 354 355 354 354 354 354 351 349 350 349 351 351 351 351 350 352 349
326 326 332 330 338 352 352 353 350 347 345 350 347 344 346 345 345 345 343 346 349 349 352 354 353 355 355 356 355 356 357 357 356 355 355 355 354 353 354 351 352 350 350 351 352 352 350 351 350
326 330 331 330 332 339 351 349 342 346 345 349 346 344 340 345 344 347 347 346 348 351 355 354 356 352 339 353 357 358 358 358 359 357 356 355 354 355 353 353 353 352 352 351 352 352 350 350 351
325 324 330 332 335 344 346 347 341 343 342 344 344 346 342 341 342 345 346 349 352 355 357 357 356 347 355 358 358 355 352 357 356 354 352 353 354 353 353 353 353 354 353 352 353 352 352 351 350
Wind_Speed
4 4 5 3 5 6 5 5 2 4 6 3 7 5 5 4 2 4 29 27 34 34 32 29 30 27 27 29 26 24 23 24 24 24 24 24 21 20 18 17 17 15 14 13 13 14 15 15 15
6 5 2 2 5 7 4 7 3 6 3 9 8 10 7 3 7 18 19 38 41 37 33 31 31 29 27 30 26 23 22 22 23 22 22 21 20 18 18 16 15 15 12 12 12 11 12 13 13
6 5 3 4 3 3 3 1 2 5 6 5 4 4 4 7 15 18 27 41 40 36 34 32 31 29 27 28 26 23 20 20 20 20 20 20 20 18 17 15 14 13 11 10 10 11 12 11 11
1 6 3 4 5 4 2 5 4 10 3 7 4 8 6 15 16 19 36 39 39 35 33 30 29 27 26 25 25 23 20 18 18 18 18 16 16 17 15 14 13 13 9 9 8 9 10 10 9
4 3 4 2 2 1 7 7 10 10 3 3 2 8 13 9 32 41 37 36 36 35 32 29 28 27 25 23 21 21 20 17 16 16 15 15 14 13 14 12 11 9 8 7 7 7 7 8 8
4 3 4 2 6 2 7 11 20 17 7 13 8 8 4 36 40 36 39 34 36 36 30 28 26 25 23 21 21 19 19 18 16 16 16 15 14 12 10 10 9 8 7 5 4 6 7 8 9
4 4 4 4 10 3 6 7 12 8 9 7 10 5 11 23 36 37 36 36 34 33 31 28 26 23 21 21 19 19 17 16 17 15 15 14 12 10 10 8 7 6 4 2 3 5 7 10 9
4 4 4 4 1 4 15 4 12 8 3 3 6 4 17 24 31 33 35 32 36 35 32 30 27 24 24 21 19 19 18 17 16 15 15 14 9 8 8 8 6 5 2 2 4 6 7 10 10
4 2 2 4 5 7 12 8 6 1 4 3 8 6 16 38 38 34 30 28 26 26 34 32 29 25 23 22 18 18 17 17 15 13 13 11 8 6 8 8 6 4 4 6 8 8 7 10 11
5 4 5 6 3 8 6 12 12 6 5 1 11 21 36 35 34 31 27 24 25 26 29 33 30 27 24 21 19 18 18 18 17 14 13 10 7 3 9 10 7 4 6 8 10 10 10 11 10
5 5 4 4 4 17 15 9 1 5 3 3 18 21 25 27 26 27 27 33 33 33 34 34 31 28 26 24 22 19 21 20 18 16 14 11 11 7 10 12 7 4 4 6 8 9 11 12 10
4 5 8 4 5 11 9 8 4 5 2 11 13 20 18 20 19 25 25 26 28 30 32 35 31 29 26 23 23 22 22 21 18 16 15 14 13 10 9 13 8 6 5 6 6 6 9 12 13
4 4 6 8 6 8 10 7 6 5 12 8 13 7 9 13 11 12 11 19 27 27 29 33 31 28 26 23 24 23 23 21 18 13 12 13 10 11 10 12 8 7 6 6 8 6 10 14 15
4 1 4 7 8 10 9 6 2 9 13 13 13 13 14 12 17 19 14 11 20 23 29 31 31 28 27 26 25 24 23 21 18 15 14 14 10 7 9 9 9 8 4 7 7 6 7 9 11
8 1 7 4 4 6 15 5 13 1 14 10 11 12 13 16 22 25 31 25 27 23 19 27 31 29 29 28 28 24 21 18 19 17 15 14 12 10 9 9 9 9 8 7 6 9 8 7 11
6 3 2 7 8 6 6 4 7 11 17 15 12 8 10 10 19 27 26 22 26 27 24 24 29 32 30 29 28 22 18 17 18 18 17 14 12 12 13 14 12 8 8 6 7 6 3 3 5
5 5 4 6 6 5 3 1 6 13 14 8 9 7 6 6 9 11 16 16 26 23 22 22 24 30 30 26 23 20 18 18 18 18 17 15 13 13 13 13 10 9 6 6 6 6 5 7 5
4 5 4 6 5 4 4 6 4 11 13 12 12 12 10 8 10 12 12 15 24 22 25 26 30 27 28 24 19 16 15 17 18 19 18 15 14 14 12 12 10 10 8 5 4 5 4 2 3
9 10 6 1 3 5 6 5 7 7 15 15 10 11 12 11 7 10 14 18 24 23 20 32 27 30 25 22 20 18 18 19 18 17 18 15 15 14 12 11 10 10 9 7 6 6 5 4 4
17 6 1 4 7 5 5 4 4 12 13 15 14 9 9 5 5 9 13 21 15 18 20 19 25 23 24 20 19 17 18 16 15 18 19 17 15 15 11 12 10 10 8 10 7 6 3 2 1
12 7 6 6 8 2 7 2 3 4 11 12 9 10 11 12 11 8 13 19 18 16 21 22 20 17 22 21 17 15 12 12 14 17 20 12 15 16 13 13 12 10 9 10 10 8 6 3 2
9 7 9 10 4 5 2 4 5 6 4 3 9 10 11 11 7 8 15 18 22 24 23 20 19 21 23 21 20 21 17 16 15 17 16 15 14 13 14 13 14 13 13 12 10 11 7 6 5
10 5 4 3 4 4 7 5 5 4 3 6 7 9 11 12 13 13 15 21 24 22 22 18 19 24 22 21 21 19 18 14 10 12 13 15 15 17 16 14 15 18 18 14 13 11 10 8 9
5 4 8 5 3 4 5 5 4 4 6 2 4 8 10 11 12 12 18 18 17 19 18 17 20 24 21 20 19 19 18 15 15 13 15 16 14 15 17 18 18 16 17 16 16 14 13 11 9
3 7 3 5 5 4 4 4 7 6 5 7 5 7 11 11 11 10 9 14 19 21 20 19 24 23 21 20 21 19 15 15 17 15 15 14 14 16 17 16 17 18 17 16 14 14 14 11 12
6 8 5 4 4 3 5 2 6 7 1 6 5 10 13 11 11 11 12 17 21 21 20 24 26 24 23 21 20 18 16 16 16 13 12 12 15 15 13 14 14 14 14 14 15 16 15 15 13
4 2 6 6 3 4 4 5 7 6 6 7 1 15 15 13 12 13 12 18 19 22 26 25 25 24 23 21 18 18 18 17 14 11 10 11 11 10 10 10 10 11 13 13 13 14 15 14 15
8 5 2 3 4 2 4 4 5 5 3 1 6 5 13 15 14 12 13 20 25 26 28 23 22 22 19 18 17 18 15 12 11 7 7 4 4 4 10 10 10 8 10 11 13 13 14 15 15
2 3 5 5 5 6 2 6 7 9 8 8 3 3 2 13 14 14 13 24 27 24 25 26 24 18 13 20 15 14 10 7 5 3 2 1 1 1 2 6 8 9 11 12 13 15 14 15 17
8 10 7 5 5 2 3 5 7 11 13 12 10 4 3 4 10 13 15 22 22 24 23 24 23 19 8 11 12 9 6 6 4 6 7 4 2 1 1 3 6 8 9 10 12 15 17 17 18
Wind_Direction
318 295 347 19 58 69 351 282 117 314 359 66 90 122 139 86 196 152 144 156 150 151 153 153 147 144 140 135 133 128 130 126 123 121 119 116 113 114 114 112 109 107 114 117 119 117 119 117 117
4 20 45 67 89 117 246 251 278 327 165 101 90 83 60 89 66 117 128 155 152 151 157 155 152 150 145 141 135 131 128 125 124 123 123 121 119 116 115 112 115 117 118 118 123 118 121 118 119
345 1 72 76 93 146 183 37 21 284 73 50 92 24 87 107 110 139 147 150 151 152 158 155 156 154 149 146 141 137 136 133 132 130 127 127 126 124 121 120 121 115 118 122 127 127 120 120 118
88 6 60 75 155 149 40 316 187 129 278 27 80 82 64 132 133 140 144 150 149 155 158 157 156 158 155 151 149 146 146 145 141 134 131 129 126 124 123 122 123 122 123 127 121 124 136 134 134
54 29 47 32 76 177 160 200 85 99 311 57 278 107 133 98 132 139 146 150 151 157 158 160 159 162 162 160 158 156 151 150 144 138 135 131 128 128 129 126 126 128 124 131 143 149 154 159 158
36 81 54 71 314 225 167 123 117 130 132 121 100 97 86 135 134 146 149 151 158 158 159 160 163 162 165 167 169 164 157 159 154 148 144 143 141 137 132 131 131 129 128 152 155 175 176 185 186
125 52 197 204 200 158 142 209 122 157 148 213 122 109 132 142 144 148 146 154 157 159 158 161 162 162 167 168 168 167 164 166 162 158 157 152 148 147 138 140 144 140 149 179 206 215 201 209 199
111 114 283 282 141 82 175 125 125 140 223 121 99 174 158 153 146 141 145 150 155 159 159 162 162 167 169 169 169 171 176 175 171 172 164 155 158 160 153 153 157 156 169 232 240 247 233 222 206
179 79 271 252 172 139 126 128 171 98 150 240 169 146 132 136 137 135 137 141 147 156 164 166 166 171 171 174 175 181 181 180 180 184 188 185 180 189 190 183 180 205 282 280 263 256 248 233 219
147 118 256 224 166 98 114 150 163 168 166 347 128 116 135 139 144 143 145 147 156 162 167 170 170 175 176 180 178 187 186 188 189 195 195 197 211 241 222 208 207 260 272 279 269 260 251 238 231
184 152 206 245 185 142 160 185 97 104 133 200 140 137 144 149 149 149 157 160 169 169 172 177 172 177 180 183 185 190 193 200 203 208 213 227 238 255 231 213 222 263 273 287 280 252 237 240 244
173 216 155 229 200 161 166 121 144 179 221 130 150 146 154 158 156 159 163 165 164 174 176 179 178 180 183 187 192 195 201 208 215 228 236 246 251 259 249 221 236 256 288 286 268 276 258 244 239
202 214 207 180 199 137 128 160 163 204 102 122 122 118 132 142 105 134 165 171 168 173 177 182 180 184 186 192 198 203 209 217 221 228 234 245 256 254 254 220 239 247 269 286 303 290 273 259 247
199 69 282 201 221 131 148 170 107 64 122 134 98 105 109 108 126 123 157 185 174 180 181 185 186 187 189 197 205 210 215 224 227 233 242 242 251 242 224 223 231 242 279 294 301 304 272 281 249
285 301 329 214 237 130 124 87 93 11 122 125 138 136 141 150 152 170 177 184 176 181 195 196 194 191 194 205 208 211 218 220 225 237 246 244 240 229 235 234 229 237 270 291 320 317 290 262 234
298 68 339 280 203 172 110 232 110 130 119 136 161 128 161 165 182 185 175 177 167 174 189 214 204 201 202 201 200 208 215 221 229 235 244 241 241 238 244 248 241 236 240 303 325 317 311 316 268
350 247 200 296 184 126 99 197 163 151 147 155 136 159 185 171 214 192 164 162 169 175 185 208 210 207 201 200 203 208 216 221 232 233 232 233 235 230 236 233 228 214 237 268 306 342 354 18 20
268 283 233 199 234 86 109 159 89 165 147 151 151 163 175 196 201 180 158 173 177 177 182 192 206 205 206 208 205 209 220 224 237 239 235 230 231 225 232 232 221 220 238 254 320 344 350 352 357
269 246 266 175 276 122 191 133 201 113 133 136 148 162 176 184 213 166 166 167 174 182 180 191 198 202 201 200 203 208 219 226 233 235 236 229 234 223 230 230 220 217 233 251 301 323 328 327 334
281 277 69 341 293 98 149 176 182 138 142 147 160 166 166 158 151 163 169 188 205 197 193 200 206 207 202 201 211 214 226 231 231 239 234 233 234 223 242 220 224 227 236 244 269 289 285 322 51
272 244 182 184 201 80 119 16 93 63 121 140 144 160 158 159 172 184 186 192 202 204 206 199 196 200 197 204 207 217 216 222 230 228 236 238 228 235 241 226 231 229 233 234 250 262 254 255 272
251 261 254 201 126 194 193 212 50 2 77 122 152 169 159 151 163 177 195 203 200 208 198 194 199 197 201 206 208 212 209 212 230 235 239 240 245 242 237 235 230 228 232 234 245 246 270 252 218
222 190 296 244 155 95 352 81 278 150 114 201 230 191 173 166 171 188 199 208 209 201 197 199 197 204 204 207 210 217 226 229 241 243 240 239 248 250 249 240 237 238 234 230 236 237 250 276 222
233 38 39 35 71 56 271 117 268 185 161 198 188 232 189 170 180 194 200 200 200 195 200 206 210 205 207 209 212 218 226 229 236 234 239 246 251 249 243 241 239 240 235 233 235 237 233 243 247
120 61 357 351 8 198 225 68 241 219 208 139 216 243 216 172 179 183 192 188 198 197 196 207 201 203 206 209 214 217 228 236 240 245 247 250 250 247 247 243 244 241 238 239 239 235 235 238 247
177 143 148 233 192 206 299 229 264 248 186 194 205 223 194 182 187 188 191 195 201 200 203 196 197 200 205 211 216 226 234 237 241 251 259 259 258 256 255 249 242 236 238 238 241 245 241 237 240
234 164 176 129 72 81 280 288 305 316 316 279 295 149 178 179 173 182 181 182 185 185 193 189 195 200 203 211 220 228 237 239 252 252 275 262 278 275 258 247 243 237 232 233 234 237 233 238 245
150 168 63 8 118 157 248 265 237 246 152 320 32 134 182 170 174 178 173 180 186 195 195 191 200 205 207 204 219 230 230 245 252 260 251 252 282 274 252 229 234 238 238 237 237 242 239 242 249
241 117 63 121 146 166 166 262 208 203 144 138 85 347 107 186 175 177 181 185 194 193 179 191 199 207 190 196 215 227 215 209 215 256 209 245 288 304 251 225 231 237 246 252 248 249 251 248 253
198 187 149 131 244 56 134 268 184 193 152 156 186 136 37 35 189 178 172 145 153 151 164 185 201 207 203 178 168 167 178 169 136 106 88 76 54 2 322 244 240 242 245 249 248 251 253 254 256